Weather History for KMEZ - June, 2013

Change the Weather History Date:

Thursday, June 13, 2013

  Actual Average (KDEQ) Record (KDEQ)
Temperature  
Mean Temperature 88 °F 77 °F  
Max Temperature 98 °F 88 °F 99 °F (1953)
Min Temperature 78 °F 66 °F 51 °F (1985)
Degree Days  
Heating Degree Days 0 0  
Month to date heating degree days 0  
Since 1 June heating degree days 0  
Since 1 July heating degree days 3042  
Cooling Degree Days 23 12  
Month to date cooling degree days 138  
Year to date cooling degree days 355  
Since 1 June cooling degree days 138  
Growing Degree Days 38 (Base 50)    
Moisture  
Dew Point 70 °F    
Average Humidity 58    
Maximum Humidity 100    
Minimum Humidity 37    
Precipitation  
Precipitation 0.00 in 0.15 in 2.15 in (1989)
Month to date precipitation 1.91  
Year to date precipitation 23.04  
Snow  
Snow 0.00 in - - ()
Month to date snowfall  
Since 1 June snowfall  
Since 1 July snowfall  
Snow Depth -    
Sea Level Pressure  
Sea Level Pressure 30.00 in    
Wind  
Wind Speed 5 mph (WSW)    
Max Wind Speed 13 mph    
Max Gust Speed 18 mph    
Visibility 10 miles    
Events      
T = Trace of Precipitation, MM = Missing Value Source: NWS Daily Summary

Daily Weather History Graph

Daily Weather History Graph

Search for Another Location

Airport or City:

Trip Planner

Search our weather history database for the weather conditions in past years. The results will help you decide how hot, cold, wet, or windy it might be!

Date:

Astronomy

Jun. 13, 2013 Rise Set
Actual Time 6:03 AM CDT 8:30 PM CDT
Civil Twilight 5:34 AM CDT 8:59 PM CDT
Nautical Twilight 4:57 AM CDT 9:36 PM CDT
Astronomical Twilight 4:17 AM CDT 10:16 PM CDT
Moon 10:31 AM CDT (6/13) 11:48 PM CDT (6/13)
Length of Visible Light 15h 25m
Length of Day
14h 26m
Waxing Crescent, 22% of the Moon is Illuminated
Jun 13
Waxing Crescent
Jun 16
First Quarter
Jun 23
Full
Jun 29
Last Quarter
Jul 8
New

Hourly Weather History & Observations

Time (CDT) Temp. Heat Index Dew Point Humidity Pressure Visibility Wind Dir Wind Speed Gust Speed Precip Events Conditions
12:15 AM 82.4 °F 86.3 °F 69.8 °F 66% 30.01 in 10.0 mi SSW 3.5 mph - N/A   Clear
12:35 AM 82.4 °F 86.3 °F 69.8 °F 66% 30.01 in 10.0 mi WSW 3.5 mph - N/A   Clear
12:55 AM 82.4 °F 86.3 °F 69.8 °F 66% 30.01 in 10.0 mi WSW 3.5 mph - N/A   Clear
1:15 AM 82.4 °F 86.3 °F 69.8 °F 66% 30.01 in 10.0 mi SW 6.9 mph - N/A   Clear
1:35 AM 82.4 °F 86.3 °F 69.8 °F 66% 30.01 in 10.0 mi WSW 5.8 mph - N/A   Clear
1:55 AM 82.4 °F 86.3 °F 69.8 °F 66% 30.01 in 10.0 mi WSW 5.8 mph - N/A   Clear
2:15 AM 82.4 °F 86.3 °F 69.8 °F 66% 30.01 in 10.0 mi WSW 5.8 mph - N/A   Clear
2:35 AM 80.6 °F 83.9 °F 69.8 °F 70% 30.01 in 10.0 mi WSW 3.5 mph - N/A   Clear
2:55 AM 82.4 °F 86.3 °F 69.8 °F 66% 30.01 in 10.0 mi WSW 6.9 mph - N/A   Clear
3:15 AM 82.4 °F 86.3 °F 69.8 °F 66% 30.01 in 10.0 mi WSW 6.9 mph - N/A   Clear
3:35 AM 80.6 °F 83.9 °F 69.8 °F 70% 30.01 in 10.0 mi WSW 4.6 mph - N/A   Clear
3:55 AM 80.6 °F 83.9 °F 69.8 °F 70% 30.01 in 10.0 mi WSW 4.6 mph - N/A   Clear
4:15 AM 80.6 °F 83.9 °F 69.8 °F 70% 30.01 in 10.0 mi WSW 5.8 mph - N/A   Clear
4:35 AM 80.6 °F 83.9 °F 69.8 °F 70% 30.01 in 10.0 mi SW 4.6 mph - N/A   Clear
4:55 AM 78.8 °F - 69.8 °F 74% 30.01 in 10.0 mi SW 4.6 mph - N/A   Clear
5:15 AM 78.8 °F - 69.8 °F 74% 30.01 in 10.0 mi SW 3.5 mph - N/A   Clear
5:35 AM 78.8 °F - 69.8 °F 74% 30.02 in 10.0 mi SW 4.6 mph - N/A   Clear
5:55 AM 78.8 °F - 69.8 °F 74% 30.02 in 10.0 mi SW 4.6 mph - N/A   Clear
6:15 AM 78.8 °F - 69.8 °F 74% 30.03 in 10.0 mi SW 4.6 mph - N/A   Clear
6:35 AM 78.8 °F - 69.8 °F 74% 30.03 in 10.0 mi WSW 4.6 mph - N/A   Clear
6:55 AM 80.6 °F 83.9 °F 69.8 °F 70% 30.03 in 10.0 mi WSW 8.1 mph - N/A   Clear
7:15 AM 80.6 °F 83.9 °F 69.8 °F 70% 30.04 in 10.0 mi WSW 10.4 mph - N/A   Clear
7:35 AM 80.6 °F 83.9 °F 69.8 °F 70% 30.04 in 10.0 mi WSW 8.1 mph - N/A   Clear
7:55 AM 82.4 °F 86.3 °F 69.8 °F 66% 30.05 in 10.0 mi WSW 9.2 mph - N/A   Clear
8:15 AM 82.4 °F 86.3 °F 69.8 °F 66% 30.05 in 10.0 mi WSW 8.1 mph - N/A   Clear
8:35 AM 84.2 °F 88.4 °F 69.8 °F 62% 30.05 in 10.0 mi West 8.1 mph - N/A   Clear
8:55 AM 86.0 °F 89.4 °F 68.0 °F 55% 30.05 in 10.0 mi West 12.7 mph 16.1 mph N/A   Clear
9:15 AM 86.0 °F 89.4 °F 68.0 °F 55% 30.06 in 10.0 mi WSW 9.2 mph 18.4 mph N/A   Clear
9:35 AM 86.0 °F 89.4 °F 68.0 °F 55% 30.06 in 10.0 mi WSW 9.2 mph 16.1 mph N/A   Clear
9:55 AM 87.8 °F 91.4 °F 68.0 °F 52% 30.05 in 10.0 mi WSW 9.2 mph 16.1 mph N/A   Clear
10:15 AM 87.8 °F 91.4 °F 68.0 °F 52% 30.05 in 10.0 mi WSW 9.2 mph 16.1 mph N/A   Clear
10:35 AM 89.6 °F 93.4 °F 68.0 °F 49% 30.05 in 10.0 mi West 9.2 mph - N/A   Clear
10:55 AM 89.6 °F 94.7 °F 69.8 °F 52% 30.05 in 10.0 mi West 10.4 mph - N/A   Clear
11:15 AM 89.6 °F 94.7 °F 69.8 °F 52% 30.05 in 10.0 mi WSW 8.1 mph 17.3 mph N/A   Clear
11:35 AM 91.4 °F 96.8 °F 69.8 °F 49% 30.05 in 10.0 mi WSW 11.5 mph - N/A   Clear
11:55 AM 91.4 °F 96.8 °F 69.8 °F 49% 30.04 in 10.0 mi WSW 10.4 mph - N/A   Clear
12:15 PM 93.2 °F 98.8 °F 69.8 °F 46% 30.04 in 10.0 mi West 11.5 mph 16.1 mph N/A   Clear
12:35 PM 95.0 °F 99.5 °F 68.0 °F 41% 30.04 in 10.0 mi WSW 5.8 mph - N/A   Clear
12:55 PM 95.0 °F 101.3 °F 69.8 °F 44% 30.03 in 10.0 mi WSW 9.2 mph - N/A   Clear
1:15 PM 95.0 °F 99.5 °F 68.0 °F 41% 30.03 in 10.0 mi WSW 8.1 mph - N/A   Clear
1:35 PM 95.0 °F 101.3 °F 69.8 °F 44% 30.03 in 10.0 mi West 6.9 mph - N/A   Clear
1:55 PM 96.8 °F 103.1 °F 69.8 °F 41% 30.02 in 10.0 mi WNW 8.1 mph - N/A   Scattered Clouds
2:15 PM 95.0 °F 101.3 °F 69.8 °F 44% 30.01 in 10.0 mi WSW 4.6 mph - N/A   Scattered Clouds
2:35 PM 96.8 °F 101.8 °F 68.0 °F 39% 30.01 in 10.0 mi WNW 11.5 mph - N/A   Scattered Clouds
2:55 PM 96.8 °F 101.8 °F 68.0 °F 39% 30.00 in 10.0 mi West 6.9 mph 10.4 mph N/A   Clear
3:15 PM 96.8 °F 101.8 °F 68.0 °F 39% 30.00 in 10.0 mi West 9.2 mph - N/A   Clear
3:35 PM 96.8 °F 101.8 °F 68.0 °F 39% 29.99 in 10.0 mi West 10.4 mph - N/A   Clear
3:55 PM 96.8 °F 101.8 °F 68.0 °F 39% 29.99 in 10.0 mi West 6.9 mph - N/A   Clear
4:15 PM 98.6 °F 104.1 °F 68.0 °F 37% 29.98 in 10.0 mi West 6.9 mph - N/A   Scattered Clouds
4:35 PM 98.6 °F 105.5 °F 69.8 °F 39% 29.97 in 10.0 mi NW 5.8 mph - N/A   Clear
4:55 PM 95.0 °F 101.3 °F 69.8 °F 44% 29.96 in 10.0 mi WNW 5.8 mph - N/A   Scattered Clouds
5:15 PM 95.0 °F 101.3 °F 69.8 °F 44% 29.96 in 10.0 mi NW 4.6 mph - N/A   Scattered Clouds
5:35 PM 95.0 °F 101.3 °F 69.8 °F 44% 29.95 in 10.0 mi NNW 3.5 mph - N/A   Scattered Clouds
5:55 PM 96.8 °F 103.1 °F 69.8 °F 41% 29.95 in 10.0 mi West 4.6 mph - N/A   Scattered Clouds
6:15 PM 96.8 °F 103.1 °F 69.8 °F 41% 29.94 in 10.0 mi West 5.8 mph - N/A   Clear
6:35 PM 95.0 °F 101.3 °F 69.8 °F 44% 29.94 in 10.0 mi NW 4.6 mph - N/A   Clear
6:55 PM 95.0 °F 101.3 °F 69.8 °F 44% 29.94 in 10.0 mi WNW 4.6 mph - N/A   Clear
7:15 PM 93.2 °F 100.5 °F 71.6 °F 49% 29.94 in 10.0 mi Calm Calm - N/A   Clear
7:35 PM 91.4 °F 98.4 °F 71.6 °F 52% 29.95 in 10.0 mi Calm Calm - N/A   Clear
7:55 PM 91.4 °F 100.1 °F 73.4 °F 55% 29.95 in 10.0 mi Calm Calm - N/A   Clear
8:15 PM 89.6 °F 98.2 °F 73.4 °F 59% 29.95 in 10.0 mi Calm Calm - N/A   Clear
8:35 PM 87.8 °F 95.6 °F 73.4 °F 62% 29.96 in 10.0 mi Calm Calm - N/A   Clear
8:55 PM 86.0 °F 96.9 °F 77.0 °F 74% 29.96 in 10.0 mi Calm Calm - N/A   Clear
9:15 PM 82.4 °F 92.4 °F 78.8 °F 89% 29.96 in 10.0 mi Calm Calm - N/A   Clear
9:35 PM 80.6 °F 89.3 °F 80.6 °F 100% 29.96 in 10.0 mi Calm Calm - N/A   Clear
9:55 PM 80.6 °F 89.3 °F 80.6 °F 100% 29.97 in 10.0 mi Calm Calm - N/A   Clear
10:15 PM 80.6 °F - - N/A% 29.98 in 10.0 mi Calm Calm - N/A   Clear
10:35 PM 80.6 °F - - N/A% 29.98 in 7.0 mi Calm Calm - N/A   Clear
10:55 PM 78.8 °F - - N/A% 29.98 in 10.0 mi Calm Calm - N/A   Clear
11:15 PM 78.8 °F - - N/A% 29.99 in 10.0 mi Calm Calm - N/A   Clear
11:35 PM 78.8 °F - - N/A% 29.99 in 10.0 mi Calm Calm - N/A   Scattered Clouds
11:55 PM 78.8 °F - - N/A% 29.98 in 10.0 mi Calm Calm - N/A   Scattered Clouds